Location: Betz
(49.1556°N, 2.9558°E)
Time: 20:41:32
(UTC+00:00)

Cosmos 2154 Rocket - Pass Details

Date: 18 September 2019
Orbit: 965 x 997 km, 82.9° (Epoch: 16 October)

Event Time Altitude Azimuth Distance (km) Brightness Sun altitude
Rises 18:42:18 0° 351° (N) 3,669 7.3 -8.4°
Reaches altitude 10° 18:44:51 10° 354° (N) 2,717 6.6 -8.8°
Maximum altitude 18:51:03 69° 78° (ENE) 1,031 4.0 -9.8°
Drops below altitude 10° 18:57:13 10° 162° (SSE) 2,702 6.0 -10.8°
Sets 18:59:43 0° 165° (SSE) 3,648 6.7 -11.2°
